Hourly Weather Gogolewko

Today, 7 May, Friday

Time Temperature Precipitation Wind Pressure Humidity
00:00 +6°C° 0.1 mm 2 mps 748 mmHg 82%
01:00 +6°C° 0.1 mm 2 mps 748 mmHg 85%
02:00 +6°C° 0.4 mm 2 mps 747 mmHg 87%
03:00 +7°C° 0.4 mm 1 mps 747 mmHg 90%
04:00 +7°C° 0.4 mm 1 mps 747 mmHg 92%
05:00 +7°C° 0.1 mm 1 mps 747 mmHg 90%
06:00 +8°C° 0.1 mm 1 mps 747 mmHg 88%
07:00 +8°C° 0.1 mm 1 mps 747 mmHg 86%
08:00 +8°C° 0.2 mm 1 mps 747 mmHg 85%
09:00 +8°C° 0.2 mm 1 mps 748 mmHg 83%
10:00 +7°C° 0.2 mm 2 mps 748 mmHg 82%
11:00 +7°C° 0.5 mm 3 mps 748 mmHg 85%
12:00 +6°C° 0.5 mm 4 mps 749 mmHg 88%
13:00 +5°C° 0.5 mm 5 mps 749 mmHg 91%
14:00 +5°C° 0.7 mm 5 mps 749 mmHg 90%
15:00 +4°C° 0.7 mm 6 mps 750 mmHg 89%
16:00 +4°C° 0.7 mm 6 mps 750 mmHg 88%
17:00 +4°C° 0.2 mm 6 mps 751 mmHg 88%
18:00 +5°C° 0.2 mm 5 mps 752 mmHg 88%
19:00 +4°C° 0.2 mm 4 mps 752 mmHg 88%
20:00 +2°C° 0.1 mm 5 mps 753 mmHg 90%
21:00 +2°C° 0.1 mm 5 mps 753 mmHg 92%
22:00 +1°C° 0.1 mm 5 mps 754 mmHg 94%
23:00 +1°C° 0 mm 5 mps 754 mmHg 93%

Tomorrow, 8 May, Saturday

Time Temperature Precipitation Wind Pressure Humidity
00:00 +2°C° 0 mm 5 mps 755 mmHg 93%
01:00 +2°C° 0 mm 5 mps 755 mmHg 93%
02:00 +1°C° 0 mm 5 mps 755 mmHg 94%
03:00 +1°C° 0 mm 4 mps 756 mmHg 95%
04:00 0°C° 0 mm 4 mps 756 mmHg 96%
05:00 +1°C° 0 mm 4 mps 757 mmHg 92%
06:00 +2°C° 0 mm 5 mps 757 mmHg 89%
07:00 +3°C° 0 mm 5 mps 757 mmHg 85%
08:00 +5°C° 0 mm 6 mps 757 mmHg 76%
09:00 +7°C° 0 mm 6 mps 758 mmHg 67%
10:00 +9°C° 0 mm 6 mps 758 mmHg 58%
11:00 +10°C° 0 mm 6 mps 758 mmHg 54%
12:00 +10°C° 0 mm 6 mps 758 mmHg 51%
13:00 +11°C° 0 mm 6 mps 758 mmHg 47%
14:00 +12°C° 0 mm 5 mps 757 mmHg 48%
15:00 +12°C° 0 mm 4 mps 757 mmHg 48%
16:00 +12°C° 0 mm 4 mps 757 mmHg 48%
17:00 +11°C° 0 mm 3 mps 757 mmHg 54%
18:00 +10°C° 0 mm 2 mps 757 mmHg 59%
19:00 +9°C° 0 mm 1 mps 757 mmHg 65%
20:00 +8°C° 0 mm 2 mps 758 mmHg 67%
21:00 +7°C° 0 mm 2 mps 758 mmHg 68%
22:00 +5°C° 0 mm 3 mps 758 mmHg 70%
23:00 +5°C° 0 mm 3 mps 758 mmHg 74%

Day after tomorrow, 9 May, Sunday

Time Temperature Precipitation Wind Pressure Humidity
00:00 +4°C° 0 mm 3 mps 758 mmHg 77%
01:00 +4°C° 0 mm 4 mps 758 mmHg 81%
02:00 +4°C° 0 mm 4 mps 757 mmHg 80%
03:00 +4°C° 0 mm 4 mps 757 mmHg 78%
04:00 +4°C° 0 mm 4 mps 757 mmHg 77%
05:00 +6°C° 0 mm 5 mps 756 mmHg 75%
06:00 +7°C° 0 mm 5 mps 756 mmHg 73%
07:00 +9°C° 0 mm 5 mps 756 mmHg 71%
08:00 +12°C° 0 mm 5 mps 756 mmHg 66%
09:00 +14°C° 0 mm 6 mps 756 mmHg 62%
10:00 +16°C° 0 mm 6 mps 756 mmHg 58%
11:00 +17°C° 0 mm 6 mps 756 mmHg 57%
12:00 +19°C° 0 mm 6 mps 755 mmHg 56%
13:00 +20°C° 0 mm 6 mps 755 mmHg 55%
14:00 +20°C° 0 mm 6 mps 755 mmHg 58%
15:00 +20°C° 0 mm 5 mps 755 mmHg 61%
16:00 +20°C° 0 mm 5 mps 754 mmHg 64%
17:00 +19°C° 0 mm 5 mps 754 mmHg 69%
18:00 +17°C° 0 mm 4 mps 754 mmHg 75%
19:00 +15°C° 0 mm 4 mps 754 mmHg 80%
20:00 +14°C° 0 mm 4 mps 754 mmHg 79%
21:00 +12°C° 0 mm 4 mps 754 mmHg 78%
22:00 +11°C° 0 mm 4 mps 754 mmHg 78%
23:00 +11°C° 0 mm 4 mps 754 mmHg 75%

10 May, Monday

Time Temperature Precipitation Wind Pressure Humidity
00:00 +11°C° 0 mm 4 mps 754 mmHg 73%
01:00 +10°C° 0 mm 4 mps 754 mmHg 71%
02:00 +9°C° 0 mm 5 mps 754 mmHg 69%
03:00 +9°C° 0 mm 5 mps 754 mmHg 67%
04:00 +10°C° 0 mm 6 mps 753 mmHg 65%
05:00 +11°C° 0 mm 6 mps 753 mmHg 65%
06:00 +12°C° 0 mm 7 mps 753 mmHg 66%
07:00 +14°C° 0 mm 7 mps 753 mmHg 67%
08:00 +16°C° 0 mm 7 mps 753 mmHg 64%
09:00 +17°C° 0 mm 8 mps 753 mmHg 62%
10:00 +18°C° 0 mm 8 mps 753 mmHg 59%
11:00 +20°C° 0 mm 7 mps 753 mmHg 59%
12:00 +21°C° 0 mm 7 mps 753 mmHg 59%
13:00 +22°C° 0 mm 7 mps 753 mmHg 58%
14:00 +22°C° 0 mm 6 mps 753 mmHg 61%
15:00 +22°C° 0 mm 5 mps 753 mmHg 63%
16:00 +23°C° 0 mm 5 mps 753 mmHg 65%
17:00 +21°C° 0 mm 4 mps 753 mmHg 71%
18:00 +20°C° 0 mm 4 mps 753 mmHg 77%
19:00 +18°C° 0 mm 3 mps 753 mmHg 83%
20:00 +17°C° 0 mm 3 mps 753 mmHg 85%
21:00 +16°C° 0 mm 3 mps 753 mmHg 87%
22:00 +14°C° 0 mm 3 mps 753 mmHg 89%
23:00 +14°C° 0 mm 4 mps 753 mmHg 89%

11 May, Tuesday

Time Temperature Precipitation Wind Pressure Humidity
00:00 +13°C° 0 mm 4 mps 753 mmHg 90%
01:00 +13°C° 0 mm 4 mps 752 mmHg 91%
02:00 +13°C° 0 mm 4 mps 752 mmHg 88%
03:00 +13°C° 0 mm 4 mps 752 mmHg 86%
04:00 +13°C° 0 mm 5 mps 751 mmHg 84%
05:00 +14°C° 0 mm 5 mps 751 mmHg 81%
06:00 +16°C° 0 mm 5 mps 751 mmHg 79%
07:00 +17°C° 0 mm 5 mps 751 mmHg 76%
08:00 +19°C° 0 mm 6 mps 751 mmHg 72%
09:00 +21°C° 0 mm 6 mps 751 mmHg 68%
10:00 +22°C° 0 mm 7 mps 751 mmHg 63%
11:00 +23°C° 0 mm 6 mps 750 mmHg 62%
12:00 +23°C° 0 mm 6 mps 750 mmHg 61%
13:00 +25°C° 0 mm 5 mps 750 mmHg 59%
14:00 +25°C° 0 mm 5 mps 750 mmHg 62%
15:00 +25°C° 0 mm 5 mps 750 mmHg 64%
16:00 +25°C° 0 mm 5 mps 750 mmHg 66%
17:00 +22°C° 0 mm 4 mps 750 mmHg 71%
18:00 +21°C° 0 mm 4 mps 749 mmHg 76%
19:00 +20°C° 0 mm 3 mps 749 mmHg 81%
20:00 +19°C° 0 mm 3 mps 749 mmHg 82%
21:00 +18°C° 0 mm 3 mps 749 mmHg 83%
22:00 +17°C° 0 mm 4 mps 749 mmHg 84%
23:00 +17°C° 0 mm 4 mps 749 mmHg 83%

12 May, Wednesday

Time Temperature Precipitation Wind Pressure Humidity
00:00 +17°C° 0 mm 4 mps 748 mmHg 83%
01:00 +16°C° 0 mm 5 mps 748 mmHg 83%
02:00 +15°C° 0 mm 5 mps 748 mmHg 84%
03:00 +15°C° 0 mm 5 mps 748 mmHg 85%
04:00 +14°C° 0 mm 5 mps 747 mmHg 87%
05:00 +16°C° 0 mm 5 mps 747 mmHg 83%
06:00 +17°C° 0 mm 5 mps 747 mmHg 80%
07:00 +19°C° 0 mm 6 mps 747 mmHg 76%
08:00 +20°C° 0 mm 6 mps 747 mmHg 71%
09:00 +22°C° 0 mm 6 mps 747 mmHg 66%
10:00 +23°C° 0 mm 6 mps 747 mmHg 60%
11:00 +24°C° 0 mm 6 mps 747 mmHg 59%
12:00 +26°C° 0 mm 6 mps 747 mmHg 58%
13:00 +26°C° 0 mm 6 mps 746 mmHg 57%
14:00 +26°C° 0.1 mm 6 mps 746 mmHg 60%
15:00 +26°C° 0.1 mm 6 mps 746 mmHg 63%
16:00 +25°C° 0.1 mm 5 mps 745 mmHg 66%
17:00 +23°C° 0.2 mm 5 mps 745 mmHg 70%
18:00 +21°C° 0.2 mm 5 mps 745 mmHg 75%
19:00 +20°C° 0.2 mm 4 mps 745 mmHg 79%
20:00 +19°C° 0.2 mm 4 mps 745 mmHg 82%
21:00 +18°C° 0.2 mm 3 mps 745 mmHg 85%
22:00 +17°C° 0.2 mm 3 mps 746 mmHg 88%
23:00 +16°C° 0 mm 3 mps 745 mmHg 88%
Show more